Location: D?uga
(50.2667°N, 19.7833°E)
Time: 01:37:44
(UTC+00:00)

Cosmos 2219 Rocket - Pass Details

Date: 23 May 2024
Orbit: 826 x 847 km, 71.0° (Epoch: 18 June)

Event Time Altitude Azimuth Distance (km) Brightness Sun altitude
Rises 00:05:18 0° 333° (NNW) 3,397 6.0 -16.5°
Reaches altitude 10° 00:08:05 10° 344° (NNW) 2,463 5.4 -16.3°
Maximum altitude 00:12:59 29° 44° (NE) 1,494 4.2 -16.0°
Drops below altitude 10° 00:17:53 10° 105° (ESE) 2,463 4.7 -15.7°
Sets 00:20:39 0° 116° (ESE) 3,397 5.3 -15.5°
